Location: Paris
(48.6709°N, 2.3750°E)
Time: 07:06:42
(UTC+02:00)

CUBESAT XI-V - Pass Details

Date: 04 July 2022
Orbit: 668 x 690 km, 98.1° (Epoch: 18 August)

Event Time Altitude Azimuth Distance (km) Brightness Sun altitude
Exits shadow 05:06:54 - 241° (WSW) 2,352 ? -6.6°
Reaches altitude 10° 05:08:26 10° 257° (WSW) 2,104 ? -6.4°
Maximum altitude 05:09:43 11° 274° (W) 2,034 ? -6.3°
Drops below altitude 10° 05:11:01 10° 290° (WNW) 2,106 ? -6.1°
Sets 05:15:06 0° 326° (NNW) 3,025 ? -5.7°
